Weather History for Cherokee, IA

Change the Weather History Date:

Saturday, February 2, 2013

  Actual Average Record
Temperature  
Mean Temperature 26 °F -  
Max Temperature 38 °F 24 °F 54 °F (1987)
Min Temperature 15 °F 2 °F -25 °F (1979)
Degree Days  
Heating Degree Days 38    
Moisture  
Dew Point 14 °F    
Average Humidity 64    
Maximum Humidity 83    
Minimum Humidity 45    
Precipitation  
Precipitation 0.00 in - - ()
Sea Level Pressure  
Sea Level Pressure 30.07 in    
Wind  
Wind Speed 9 mph (WNW)    
Max Wind Speed 22 mph    
Max Gust Speed 37 mph    
Visibility 9 miles    
Events Snow    
Averages and records for this station are not official NWS values.
T = Trace of Precipitation, MM = Missing Value Source: NWS Daily Summary

Daily Weather History Graph

Daily Weather History Graph

Search for Another Location

Airport:

Trip Planner

Search our weather history database for the weather conditions in past years. The results will help you decide how hot, cold, wet, or windy it might be!

Date:

Astronomy

Feb. 02, 2013 Rise Set
Actual Time 7:35 AM CST 5:37 PM CST
Civil Twilight 7:05 AM CST 6:07 PM CST
Nautical Twilight 6:31 AM CST 6:40 PM CST
Astronomical Twilight 5:58 AM CST 7:13 PM CST
Moon No Moon Rise 10:35 AM CST (2/2)
Length of Visible Light 11h 01m
Length of Day
10h 02m
Waning Gibbous, 59% of the Moon is Illuminated
Feb 2
Waning Gibbous
Feb 3
Last Quarter
Feb 10
New
Feb 17
First Quarter
Feb 25
Full

Hourly Weather History & Observations

Time (CST) Temp. Windchill Dew Point Humidity Pressure Visibility Wind Dir Wind Speed Gust Speed Precip Events Conditions
12:15 AM 23.9 °F 15.8 °F 14.7 °F 68% 30.02 in 10.0 mi NNW 6.9 mph - N/A   Clear
12:35 AM 23.7 °F 14.0 °F 14.0 °F 66% 30.03 in 10.0 mi NW 9.2 mph - N/A   Clear
12:55 AM 23.0 °F 10.6 °F 13.1 °F 66% 30.04 in 10.0 mi NNW 13.8 mph 19.6 mph N/A   Clear
1:15 AM 22.1 °F 10.6 °F 12.7 °F 67% 30.04 in 10.0 mi NW 11.5 mph 18.4 mph N/A   Scattered Clouds
1:35 AM 21.9 °F 9.8 °F 13.1 °F 69% 30.05 in 10.0 mi NW 12.7 mph 20.7 mph N/A   Overcast
1:55 AM 21.9 °F 11.7 °F 13.1 °F 69% 30.05 in 10.0 mi NNW 9.2 mph - N/A   Overcast
2:15 AM 21.6 °F 10.6 °F 12.7 °F 69% 30.06 in 10.0 mi NNW 10.4 mph 16.1 mph N/A   Overcast
2:35 AM 21.2 °F 9.5 °F 12.2 °F 68% 30.07 in 10.0 mi NNW 11.5 mph 20.7 mph N/A   Overcast
2:55 AM 21.2 °F 8.9 °F 11.8 °F 67% 30.08 in 10.0 mi NNW 12.7 mph 17.3 mph N/A   Overcast
3:15 AM 21.0 °F 8.6 °F 11.3 °F 66% 30.08 in 10.0 mi NNW 12.7 mph - N/A   Overcast
3:35 AM 20.8 °F 7.9 °F 10.4 °F 64% 30.08 in 10.0 mi North 13.8 mph 20.7 mph N/A   Overcast
3:55 AM 20.7 °F 11.0 °F 10.4 °F 65% 30.08 in 10.0 mi NNW 8.1 mph - N/A   Overcast
4:15 AM 20.3 °F 10.6 °F 9.9 °F 64% 30.10 in 10.0 mi NNW 8.1 mph - N/A   Overcast
4:35 AM 19.8 °F 7.7 °F 9.5 °F 64% 30.11 in 10.0 mi NNW 11.5 mph 18.4 mph N/A   Mostly Cloudy
4:55 AM 19.4 °F 7.9 °F 8.8 °F 63% 30.12 in 10.0 mi NNW 10.4 mph - N/A   Mostly Cloudy
5:15 AM 18.3 °F 7.3 °F 7.7 °F 63% 30.13 in 10.0 mi NNW 9.2 mph - N/A   Scattered Clouds
5:35 AM 17.6 °F 8.2 °F 7.7 °F 65% 30.14 in 10.0 mi NNW 6.9 mph - N/A   Clear
5:55 AM 16.7 °F 6.2 °F 7.5 °F 67% 30.14 in 10.0 mi NNW 8.1 mph - N/A   Clear
6:15 AM 16.3 °F 5.7 °F 6.8 °F 66% 30.14 in 10.0 mi North 8.1 mph - N/A   Clear
6:35 AM 16.2 °F 5.5 °F 6.8 °F 67% 30.15 in 10.0 mi North 8.1 mph - N/A   Scattered Clouds
6:55 AM 16.3 °F 6.7 °F 6.6 °F 66% 30.15 in 10.0 mi North 6.9 mph - N/A   Overcast
7:15 AM 16.5 °F 8.1 °F 6.8 °F 66% 30.16 in 10.0 mi NNW 5.8 mph - N/A   Overcast
7:35 AM 16.7 °F 8.3 °F 7.2 °F 66% 30.16 in 10.0 mi NNW 5.8 mph - N/A   Overcast
7:55 AM 15.8 °F 8.6 °F 6.4 °F 67% 30.15 in 10.0 mi NNW 4.6 mph - N/A   Scattered Clouds
8:15 AM 17.2 °F 11.9 °F 6.6 °F 63% 30.15 in 10.0 mi NNW 3.5 mph - N/A   Mostly Cloudy
8:35 AM 17.2 °F - 5.9 °F 61% 30.15 in 10.0 mi Calm Calm - N/A   Overcast
8:55 AM 17.8 °F 10.9 °F 5.4 °F 58% 30.16 in 10.0 mi North 4.6 mph - N/A   Overcast
9:15 AM 18.1 °F 12.9 °F 4.1 °F 54% 30.16 in 10.0 mi North 3.5 mph - N/A   Overcast
9:35 AM 18.1 °F - 4.5 °F 55% 30.16 in 10.0 mi Calm Calm - N/A   Mostly Cloudy
9:55 AM 19.2 °F - 4.6 °F 53% 30.16 in 10.0 mi Calm Calm - N/A   Scattered Clouds
10:15 AM 19.8 °F - 3.9 °F 50% 30.16 in 10.0 mi Calm Calm - N/A   Overcast
10:35 AM 21.2 °F - 3.9 °F 47% 30.16 in 10.0 mi Calm Calm - N/A   Overcast
10:55 AM 20.8 °F - 3.7 °F 48% 30.15 in 10.0 mi Calm Calm - N/A   Overcast
11:15 AM 21.7 °F - 4.1 °F 47% 30.16 in 10.0 mi Calm Calm - N/A   Overcast
11:35 AM 22.8 °F - 4.8 °F 46% 30.15 in 10.0 mi Calm Calm - N/A   Overcast
11:55 AM 23.4 °F 17.4 °F 5.2 °F 46% 30.14 in 10.0 mi SSW 4.6 mph - N/A   Overcast
12:15 PM 24.3 °F - 5.7 °F 45% 30.13 in 10.0 mi Calm Calm - N/A   Overcast
12:35 PM 24.8 °F 17.9 °F 6.6 °F 46% 30.12 in 10.0 mi WSW 5.8 mph - N/A   Overcast
12:55 PM 24.8 °F 19.1 °F 8.4 °F 50% 30.12 in 7.0 mi WSW 4.6 mph - N/A   Overcast
1:15 PM 25.5 °F 17.8 °F 11.1 °F 54% 30.11 in 5.0 mi WSW 6.9 mph - N/A Snow Light Snow
1:35 PM 25.5 °F 17.8 °F 11.7 °F 56% 30.10 in 10.0 mi WSW 6.9 mph - N/A   Overcast
1:55 PM 26.6 °F 19.1 °F 12.9 °F 56% 30.08 in 10.0 mi SW 6.9 mph - N/A   Overcast
2:15 PM 26.6 °F 18.2 °F 13.3 °F 57% 30.07 in 10.0 mi SSW 8.1 mph - N/A   Overcast
2:35 PM 26.4 °F 18.9 °F 12.9 °F 57% 30.06 in 10.0 mi SW 6.9 mph - N/A   Overcast
2:55 PM 27.1 °F 18.2 °F 13.3 °F 56% 30.05 in 10.0 mi SSW 9.2 mph - N/A   Overcast
3:15 PM 27.3 °F 19.1 °F 14.5 °F 59% 30.05 in 10.0 mi SSW 8.1 mph - N/A   Overcast
3:35 PM 27.3 °F 17.7 °F 14.4 °F 58% 30.04 in 10.0 mi SSW 10.4 mph - N/A   Overcast
3:55 PM 27.3 °F 17.7 °F 17.2 °F 66% 30.02 in 1.5 mi SW 10.4 mph - N/A Snow Light Snow
4:15 PM 26.6 °F 17.5 °F 19.9 °F 76% 30.02 in 0.8 mi SSW 9.2 mph - N/A Snow Light Snow
4:35 PM 26.6 °F 18.2 °F 20.7 °F 78% 30.02 in 0.8 mi SSW 8.1 mph - N/A Snow Light Snow
4:55 PM 26.6 °F 17.5 °F 21.2 °F 80% 30.01 in 3.0 mi SSW 9.2 mph - N/A Snow Light Snow
5:15 PM 27.3 °F 17.1 °F 21.9 °F 80% 29.99 in 1.2 mi SSW 11.5 mph - N/A Snow Light Snow
5:35 PM 27.5 °F 18.6 °F 22.5 °F 81% 29.99 in 1.0 mi SSW 9.2 mph - N/A Snow Light Snow
5:55 PM 27.7 °F 19.6 °F 22.8 °F 82% 29.99 in 1.8 mi SW 8.1 mph - N/A Snow Light Snow
6:15 PM 28.2 °F 20.2 °F 23.0 °F 81% 29.99 in 7.0 mi SSW 8.1 mph - N/A   Overcast
6:35 PM 30.0 °F 22.4 °F 25.2 °F 82% 29.99 in 7.0 mi SW 8.1 mph - N/A   Overcast
6:55 PM 31.1 °F 23.1 °F 26.2 °F 82% 29.98 in 7.0 mi SW 9.2 mph - N/A   Overcast
7:15 PM 32.0 °F - 27.5 °F 83% 29.98 in 10.0 mi Calm Calm - N/A   Overcast
7:35 PM 32.9 °F - 28.0 °F 82% 29.98 in 10.0 mi Calm Calm - N/A   Overcast
7:55 PM 35.2 °F 27.1 °F 29.3 °F 79% 29.98 in 10.0 mi West 11.5 mph 16.1 mph N/A   Overcast
8:15 PM 37.2 °F 29.6 °F 29.7 °F 74% 29.98 in 10.0 mi WNW 11.5 mph - N/A   Overcast
8:35 PM 38.5 °F 29.9 °F 28.2 °F 67% 29.98 in 10.0 mi WNW 15.0 mph 24.2 mph N/A   Overcast
8:55 PM 38.8 °F 29.7 °F 25.5 °F 59% 29.98 in 10.0 mi NW 17.3 mph 26.5 mph N/A   Overcast
9:15 PM 37.6 °F 27.7 °F 24.8 °F 60% 30.00 in 10.0 mi NW 18.4 mph 36.8 mph N/A   Overcast
9:35 PM 35.2 °F 24.4 °F 22.3 °F 59% 30.01 in 7.0 mi NW 19.6 mph 35.7 mph N/A   Mostly Cloudy
9:55 PM 33.1 °F 20.9 °F 20.5 °F 60% 30.02 in 10.0 mi NW 21.9 mph 32.2 mph N/A   Scattered Clouds
10:15 PM 32.0 °F 20.1 °F 19.2 °F 59% 30.04 in 10.0 mi NW 19.6 mph 31.1 mph N/A   Scattered Clouds
10:35 PM 30.4 °F 20.0 °F 17.4 °F 59% 30.04 in 10.0 mi NW 13.8 mph 28.8 mph N/A   Scattered Clouds
10:55 PM 30.0 °F 19.5 °F 18.3 °F 62% 30.04 in 10.0 mi NW 13.8 mph 26.5 mph N/A   Overcast
11:15 PM 28.6 °F 16.8 °F 17.4 °F 63% 30.04 in 10.0 mi NW 16.1 mph 24.2 mph N/A   Mostly Cloudy
11:35 PM 28.4 °F 16.6 °F 16.7 °F 62% 30.06 in 10.0 mi NW 16.1 mph 24.2 mph N/A   Overcast
11:55 PM 27.5 °F 17.4 °F 15.8 °F 61% 30.07 in 10.0 mi NW 11.5 mph 21.9 mph N/A   Overcast